This is the latest recevied weather packets stored in our database for station/object 1NW106. If no packets are shown the sender has not sent any weather packets the latest 10 day(s).
| Time | Temp. | Humidity | Pressure | Rain* | Wind** | Luminosity | Snow |
|---|---|---|---|---|---|---|---|
| 1787750968 | 25° C | 99% | 1004.5 hPa | 14.73 mm | - | - | - |
| 1787750368 | 25° C | 99% | 1004.3 hPa | 14.73 mm | - | - | - |
| 1787749768 | 25° C | 99% | 1004.3 hPa | 14.73 mm | - | - | - |
| 1787749168 | 25° C | 99% | 1004.3 hPa | 14.73 mm | - | - | - |
| 1787748568 | 25° C | 99% | 1004.3 hPa | 14.73 mm | - | - | - |
| 1787747968 | 25° C | 99% | 1004.4 hPa | 14.73 mm | - | - | - |
| 1787747368 | 25° C | 99% | 1004.2 hPa | 14.73 mm | - | - | - |
| 1787746768 | 25° C | 99% | 1004.1 hPa | 14.73 mm | - | - | - |
| 1787746168 | 25° C | 99% | 1003.9 hPa | 14.73 mm | - | - | - |
| 1787745568 | 25.56° C | 99% | 1004 hPa | 14.73 mm | - | - | - |
| 1787744969 | 25.56° C | 98% | 1004.2 hPa | 14.73 mm | - | - | - |
| 1787744368 | 25.56° C | 96% | 1004.3 hPa | 14.73 mm | - | - | - |
| 1787743768 | 25.56° C | 96% | 1004.2 hPa | 14.73 mm | - | - | - |
| 1787743168 | 25.56° C | 96% | 1004.3 hPa | 14.73 mm | - | - | - |
| 1787742568 | 25.56° C | 95% | 1004.2 hPa | 14.73 mm | - | - | - |
| 1787741968 | 26.11° C | 95% | 1004.3 hPa | 14.73 mm | - | - | - |
| 1787741368 | 26.11° C | 94% | 1004.4 hPa | 14.73 mm | - | - | - |
| 1787740768 | 26.11° C | 93% | 1005 hPa | 14.73 mm | - | - | - |
| 1787740168 | 26.67° C | 86% | 1005.4 hPa | 14.73 mm | - | - | - |
| 1787739568 | 27.22° C | 82% | 1005.3 hPa | 14.73 mm | - | - | - |
| 1787738968 | 27.22° C | 83% | 1005.3 hPa | 14.73 mm | - | - | - |
| 1787738368 | 27.78° C | 80% | 1005 hPa | 14.73 mm | - | - | - |
| 1787737768 | 28.89° C | 82% | 1004.9 hPa | 14.73 mm | - | - | - |
| 1787737168 | 29.44° C | 81% | 1005.1 hPa | 14.73 mm | - | - | - |
| 1787736568 | 30.56° C | 78% | 1005.2 hPa | 14.73 mm | - | - | - |
* Rain latest hour (hover to see other rain measurements)
** Current wind speed in m/s (hover to see current wind gust speed)